When you browse on this site, cookies collect data to enhance your experience and personalize the content and advertising you see.
Visit our Privacy Policy to learn more. By continuing to use the site, you agree to this use of cookies and data.
  • In Hungary
  • List of Countries
  • For 7 days
  • Water Temperature
  • Satellite Maps
  • Weather Map
  • News
  • Weather Widgets
  • user-avatar
    Login

    Hourly Weather Marganets

    Today, 21 April, Sunday

    Time Temperature Precipitation Wind Pressure Humidity
    00:00 +8°C° 0 mm 1 mps 767 mmHg 50%
    01:00 +7°C° 0 mm 1 mps 767 mmHg 52%
    02:00 +7°C° 0 mm 1 mps 766 mmHg 53%
    03:00 +7°C° 0 mm 1 mps 766 mmHg 54%
    04:00 +6°C° 0 mm 1 mps 766 mmHg 56%
    05:00 +6°C° 0 mm 1 mps 767 mmHg 57%
    06:00 +7°C° 0 mm 2 mps 767 mmHg 53%
    07:00 +9°C° 0 mm 2 mps 767 mmHg 49%
    08:00 +10°C° 0 mm 3 mps 767 mmHg 45%
    09:00 +11°C° 0 mm 3 mps 767 mmHg 41%
    10:00 +12°C° 0 mm 3 mps 767 mmHg 36%
    11:00 +13°C° 0 mm 4 mps 767 mmHg 32%
    12:00 +14°C° 0 mm 3 mps 766 mmHg 31%
    13:00 +14°C° 0 mm 3 mps 766 mmHg 31%
    14:00 +16°C° 0 mm 3 mps 766 mmHg 30%
    15:00 +14°C° 0 mm 3 mps 766 mmHg 31%
    16:00 +14°C° 0 mm 3 mps 766 mmHg 33%
    17:00 +14°C° 0 mm 3 mps 766 mmHg 34%
    18:00 +13°C° 0 mm 3 mps 766 mmHg 37%
    19:00 +13°C° 0 mm 2 mps 766 mmHg 40%
    20:00 +10°C° 0 mm 2 mps 766 mmHg 42%
    21:00 +10°C° 0 mm 2 mps 767 mmHg 43%
    22:00 +10°C° 0 mm 2 mps 767 mmHg 44%
    23:00 +10°C° 0 mm 2 mps 767 mmHg 45%

    Tomorrow, 22 April, Monday

    Time Temperature Precipitation Wind Pressure Humidity
    00:00 +10°C° 0 mm 2 mps 767 mmHg 48%
    01:00 +10°C° 0 mm 3 mps 767 mmHg 50%
    02:00 +9°C° 0 mm 3 mps 767 mmHg 52%
    03:00 +9°C° 0 mm 3 mps 767 mmHg 55%
    04:00 +8°C° 0 mm 3 mps 767 mmHg 57%
    05:00 +7°C° 0 mm 3 mps 767 mmHg 59%
    06:00 +8°C° 0 mm 4 mps 767 mmHg 54%
    07:00 +11°C° 0 mm 4 mps 768 mmHg 49%
    08:00 +12°C° 0 mm 5 mps 768 mmHg 43%
    09:00 +13°C° 0 mm 5 mps 768 mmHg 40%
    10:00 +14°C° 0 mm 5 mps 768 mmHg 37%
    11:00 +15°C° 0 mm 5 mps 768 mmHg 34%
    12:00 +16°C° 0 mm 5 mps 768 mmHg 33%
    13:00 +16°C° 0 mm 5 mps 768 mmHg 32%
    14:00 +17°C° 0 mm 4 mps 767 mmHg 31%
    15:00 +17°C° 0 mm 4 mps 767 mmHg 33%
    16:00 +17°C° 0 mm 4 mps 767 mmHg 35%
    17:00 +15°C° 0 mm 4 mps 767 mmHg 37%
    18:00 +14°C° 0 mm 4 mps 768 mmHg 40%
    19:00 +13°C° 0 mm 3 mps 768 mmHg 43%
    20:00 +12°C° 0 mm 3 mps 768 mmHg 46%
    21:00 +12°C° 0 mm 3 mps 769 mmHg 48%
    22:00 +11°C° 0 mm 3 mps 769 mmHg 49%
    23:00 +11°C° 0 mm 3 mps 769 mmHg 51%

    Day after tomorrow, 23 April, Tuesday

    Time Temperature Precipitation Wind Pressure Humidity
    00:00 +10°C° 0 mm 3 mps 769 mmHg 53%
    01:00 +9°C° 0 mm 3 mps 769 mmHg 54%
    02:00 +9°C° 0 mm 3 mps 769 mmHg 56%
    03:00 +9°C° 0 mm 3 mps 769 mmHg 57%
    04:00 +8°C° 0 mm 3 mps 770 mmHg 58%
    05:00 +8°C° 0 mm 2 mps 770 mmHg 59%
    06:00 +10°C° 0 mm 2 mps 770 mmHg 54%
    07:00 +12°C° 0 mm 3 mps 770 mmHg 50%
    08:00 +14°C° 0 mm 3 mps 771 mmHg 46%
    09:00 +16°C° 0 mm 3 mps 771 mmHg 41%
    10:00 +17°C° 0 mm 3 mps 771 mmHg 37%
    11:00 +17°C° 0 mm 3 mps 771 mmHg 33%
    12:00 +17°C° 0 mm 3 mps 771 mmHg 34%
    13:00 +17°C° 0 mm 3 mps 770 mmHg 36%
    14:00 +17°C° 0 mm 3 mps 770 mmHg 37%
    15:00 +17°C° 0 mm 3 mps 770 mmHg 39%
    16:00 +17°C° 0 mm 2 mps 770 mmHg 41%
    17:00 +17°C° 0 mm 2 mps 770 mmHg 43%
    18:00 +16°C° 0 mm 2 mps 770 mmHg 46%
    19:00 +15°C° 0 mm 2 mps 771 mmHg 48%
    20:00 +14°C° 0 mm 2 mps 771 mmHg 51%
    21:00 +13°C° 0 mm 2 mps 771 mmHg 54%
    22:00 +12°C° 0 mm 2 mps 771 mmHg 58%
    23:00 +10°C° 0 mm 2 mps 771 mmHg 61%

    24 April, Wednesday

    Time Temperature Precipitation Wind Pressure Humidity
    00:00 +10°C° 0 mm 2 mps 771 mmHg 62%
    01:00 +10°C° 0 mm 1 mps 771 mmHg 64%
    02:00 +10°C° 0 mm 1 mps 771 mmHg 65%
    03:00 +10°C° 0 mm 1 mps 771 mmHg 65%
    04:00 +10°C° 0 mm 1 mps 771 mmHg 65%
    05:00 +8°C° 0 mm 2 mps 771 mmHg 65%
    06:00 +10°C° 0 mm 2 mps 771 mmHg 59%
    07:00 +13°C° 0 mm 2 mps 772 mmHg 53%
    08:00 +15°C° 0 mm 2 mps 772 mmHg 47%
    09:00 +16°C° 0 mm 2 mps 772 mmHg 43%
    10:00 +17°C° 0 mm 2 mps 771 mmHg 39%
    11:00 +18°C° 0 mm 3 mps 771 mmHg 36%
    12:00 +18°C° 0 mm 2 mps 771 mmHg 35%
    13:00 +19°C° 0 mm 2 mps 771 mmHg 35%
    14:00 +20°C° 0 mm 1 mps 771 mmHg 34%
    15:00 +20°C° 0 mm 1 mps 770 mmHg 35%
    16:00 +20°C° 0 mm 1 mps 770 mmHg 35%
    17:00 +20°C° 0 mm 1 mps 770 mmHg 36%
    18:00 +18°C° 0 mm 1 mps 770 mmHg 40%
    19:00 +16°C° 0 mm 1 mps 770 mmHg 43%
    20:00 +15°C° 0 mm 1 mps 770 mmHg 47%
    21:00 +14°C° 0 mm 1 mps 770 mmHg 48%
    22:00 +14°C° 0 mm 1 mps 771 mmHg 49%
    23:00 +13°C° 0 mm 1 mps 771 mmHg 50%

    25 April, Thursday

    Time Temperature Precipitation Wind Pressure Humidity
    00:00 +13°C° 0 mm 1 mps 771 mmHg 51%
    01:00 +13°C° 0 mm 2 mps 771 mmHg 53%
    02:00 +12°C° 0 mm 2 mps 771 mmHg 54%
    03:00 +12°C° 0 mm 2 mps 771 mmHg 56%
    04:00 +12°C° 0 mm 2 mps 771 mmHg 58%
    05:00 +10°C° 0 mm 2 mps 771 mmHg 60%
    06:00 +13°C° 0 mm 2 mps 771 mmHg 56%
    07:00 +15°C° 0 mm 2 mps 771 mmHg 53%
    08:00 +17°C° 0 mm 2 mps 771 mmHg 49%
    09:00 +18°C° 0 mm 2 mps 770 mmHg 46%
    10:00 +20°C° 0 mm 2 mps 770 mmHg 43%
    11:00 +22°C° 0 mm 1 mps 770 mmHg 39%
    12:00 +22°C° 0 mm 1 mps 770 mmHg 39%
    13:00 +23°C° 0 mm 1 mps 769 mmHg 39%
    14:00 +21°C° 0 mm 0 mps 769 mmHg 39%
    15:00 +22°C° 0 mm 1 mps 769 mmHg 41%
    16:00 +22°C° 0 mm 1 mps 769 mmHg 44%
    17:00 +22°C° 0 mm 1 mps 768 mmHg 46%
    18:00 +21°C° 0 mm 1 mps 768 mmHg 49%
    19:00 +19°C° 0 mm 1 mps 768 mmHg 52%
    20:00 +16°C° 0 mm 0 mps 768 mmHg 55%
    21:00 +15°C° 0 mm 0 mps 768 mmHg 56%
    22:00 +15°C° 0 mm 0 mps 768 mmHg 57%
    23:00 +15°C° 0 mm 0 mps 768 mmHg 58%

    26 April, Friday

    Time Temperature Precipitation Wind Pressure Humidity
    00:00 +14°C° 0 mm 0 mps 768 mmHg 59%
    01:00 +14°C° 0 mm 0 mps 768 mmHg 60%
    02:00 +13°C° 0 mm 0 mps 767 mmHg 61%
    03:00 +13°C° 0 mm 0 mps 767 mmHg 64%
    04:00 +13°C° 0 mm 0 mps 767 mmHg 66%
    05:00 +12°C° 0 mm 0 mps 767 mmHg 68%
    06:00 +15°C° 0 mm 1 mps 767 mmHg 63%
    07:00 +18°C° 0 mm 1 mps 767 mmHg 59%
    08:00 +19°C° 0 mm 2 mps 767 mmHg 54%
    09:00 +20°C° 0 mm 2 mps 767 mmHg 51%
    10:00 +21°C° 0 mm 3 mps 767 mmHg 48%
    11:00 +22°C° 0 mm 3 mps 766 mmHg 44%
    12:00 +23°C° 0 mm 4 mps 766 mmHg 43%
    13:00 +23°C° 0 mm 4 mps 765 mmHg 42%
    14:00 +23°C° 0 mm 4 mps 765 mmHg 41%
    15:00 +23°C° 0 mm 4 mps 765 mmHg 43%
    16:00 +22°C° 0 mm 3 mps 764 mmHg 44%
    17:00 +22°C° 0 mm 3 mps 764 mmHg 46%
    18:00 +20°C° 0 mm 3 mps 764 mmHg 51%
    19:00 +18°C° 0 mm 3 mps 764 mmHg 56%
    20:00 +17°C° 0 mm 3 mps 764 mmHg 62%
    21:00 +16°C° 0 mm 3 mps 764 mmHg 63%
    22:00 +14°C° 0 mm 3 mps 764 mmHg 64%
    23:00 +14°C° 0 mm 2 mps 764 mmHg 65%
    Show more